Location: West Cummington
(42.4920°N, 72.9680°W)
Time: 21:35:22
(UTC-04:00)

Cosmos 2221 - Visible Passes

Search period start: 28 March 2017 00:00
Search period end: 07 April 2017 00:00
Orbit: 595 x 616 km, 82.5° (Epoch: 27 March)

Date Brightness Start Highest point End Pass type
(mag) Time Alt. Az. Time Alt. Az. Time Alt. Az.
28 Mar 4.5 21:09:06 16° NE 21:09:06 16° NE 21:10:18 10° NNE visible
28 Mar 5.1 22:45:55 19° NW 22:45:55 19° NW 22:47:45 10° NNW visible
29 Mar 3.7 21:21:18 29° NE 21:21:18 29° NE 21:23:45 10° NNE visible
29 Mar 5.3 22:58:07 15° WNW 22:58:07 15° WNW 23:00:05 10° NNW visible
30 Mar 2.8 21:33:23 58° NNE 21:33:23 58° NNE 21:36:58 10° N visible
31 Mar 4.4 20:08:30 12° E 20:08:39 12° E 20:10:21 10° ENE visible
31 Mar 3.0 21:45:17 57° WSW 21:45:39 59° W 21:50:01 10° N visible
01 Apr 3.9 20:20:11 17° ESE 20:21:30 20° E 20:24:42 10° NE visible
01 Apr 4.0 21:56:57 24° WSW 21:58:49 35° WNW 22:02:53 10° N visible
02 Apr 3.2 20:31:28 15° SSE 20:34:26 32° E 20:38:21 10° NNE visible
02 Apr 4.9 22:08:39 10° WSW 22:12:03 22° WNW 22:15:29 10° NNW visible
03 Apr 2.6 20:43:08 10° S 20:47:24 55° E 20:51:43 10° NNE visible
03 Apr 5.5 22:23:07 10° W 22:25:22 14° WNW 22:27:38 10° NW visible
04 Apr 2.5 20:56:04 10° S 21:00:28 86° WNW 21:04:53 10° N visible
05 Apr 3.4 21:09:19 10° SSW 21:13:34 50° WNW 21:17:52 10° N visible
06 Apr 3.7 19:45:53 10° SE 19:49:21 23° E 19:52:49 10° NE visible
06 Apr 4.5 21:22:53 10° SW 21:26:45 30° WNW 21:30:40 10° NNW visible
